Regional Weather Roundup
Issued by NWS

Home | Current Version | Previous Version | Graphics & Text | Print | Product List | Glossary On
Versions: 1 2 3 4 5 6 7 8 9 10 11 12 13 14 15 16 17 18 19 20 21 22 23 24 25 26 27 28 29 30 31 32 33 34 35 36 37 38 39 40 41 42 43 44 45 46 47 48 49 50
000
ASUS45 KBOI 101610
RWRID

IDAHO REGIONAL WEATHER ROUNDUP
NATIONAL WEATHER SERVICE BOISE ID
900 AM MST WED FEB 10 2016

NOTE: "FAIR" INDICATES FEW OR NO CLOUDS BELOW 12000 FEET
WITH NO SIGNIFICANT WEATHER AND/OR OBSTRUCTIONS TO VISIBILITY

IDZ012-014-101700-
SOUTHWEST IDAHO


CITY           SKY/WX    TMP DP  RH WIND       PRES   REMARKS
BOISE          FOG       28  28 100 CALM      30.45R VSB<1/4
CALDWELL       FOG       29  28  96 MISG      30.47R VSB 1
MOUNTAIN HOME  FOG       27  27 100 E5        30.44R VSB 1/2 WCI  21
$$

IDZ016-017-101700-
SOUTHCENTRAL IDAHO


CITY           SKY/WX    TMP DP  RH WIND       PRES   REMARKS
BURLEY         PTSUNNY   26  23  88 NE3       30.38R
JEROME         MOSUNNY   22  17  81 NE17      30.39R WCI   8
TWIN FALLS     PTSUNNY   24  23  96 CALM      30.39R
$$

IDZ019>023-101700-
SOUTHEAST IDAHO


CITY           SKY/WX    TMP DP  RH WIND       PRES   REMARKS
IDAHO FALLS    CLOUDY     8   5  87 N7        30.43S WCI  -3
POCATELLO      CLOUDY    15  13  91 CALM      30.44R FOG
REXBURG        CLOUDY    12   8  84 CALM      30.42S
$$

IDZ006-010-011-018-031-032-101700-
CENTRAL IDAHO MOUNTAINS


CITY           SKY/WX    TMP DP  RH WIND       PRES   REMARKS
MCCALL         FOG       18  15  88 CALM      30.34F VSB 1/4
HAILEY         MOSUNNY   21  16  79 NW9       30.39F WCI  11
STANLEY          N/A      2  -3  80 E3        30.42S
SALMON         CLOUDY     9   7  92 CALM      30.46S VSB 1/4
CHALLIS        FOG        5   1  83 CALM      30.42R VSB 3/4
$$

IDZ002-004-006-007-026-101700-
NORTHERN IDAHO


CITY           SKY/WX    TMP DP  RH WIND       PRES   REMARKS
LEWISTON       PTCLDY    42  31  64 S10       30.28R
LOWELL           N/A     33  31  92 CALM      30.38S
COEUR D`ALENE  CLOUDY    28  27  93 NE5       30.23R VSB<1/4 WCI  23
MULLAN PASS    CLEAR     37  27  67 S6        30.22F WCI  32
$$



USA.gov is the U.S. government's official web portal to all federal, state and local government web resources and services.